Wind_Speed
4 4 10 16 8 2 5 5 5 2 1 2 6 7 10 6 4 5 5 5 5 5 5 13 14 12 16 18 19 15 13 9 7 6 6 6 6 6 6 7 7 6 5 5
3 12 10 4 6 5 3 4 5 2 2 0 4 11 7 1 1 2 2 2 2 1 4 7 10 10 8 11 9 8 7 6 6 5 5 4 5 6 8 4 2 4 6 7
7 3 7 7 5 7 5 5 4 3 3 1 5 7 3 2 1 2 1 1 1 1 1 1 2 2 4 5 6 6 6 6 5 5 6 7 7 7 7 7 7 7 7 7
8 3 7 6 6 6 5 6 5 5 3 4 2 5 5 5 5 4 4 1 1 2 1 1 2 3 5 6 7 7 8 7 7 7 8 8 7 7 6 7 8 8 8 6
7 8 6 4 4 6 4 5 5 4 4 4 1 2 6 3 5 6 6 6 4 3 4 6 6 8 7 8 8 8 9 9 8 8 8 8 8 8 8 9 9 8 6 6
0 1 3 4 4 3 9 6 6 4 3 1 4 4 4 5 6 4 4 5 3 4 5 5 7 7 7 7 9 10 10 10 9 8 8 9 9 9 9 9 9 7 6 6
2 1 1 3 7 4 3 5 2 3 2 6 1 3 8 5 5 5 5 2 4 5 5 6 6 6 9 10 11 12 11 11 9 9 10 10 9 9 9 9 9 8 8 8
8 4 7 3 3 6 6 5 5 7 4 3 1 6 6 6 2 3 4 4 4 5 5 6 7 7 8 7 8 10 10 10 10 10 11 11 10 11 11 11 10 9 9 9
7 4 3 3 2 1 6 4 3 7 1 3 3 6 6 5 1 2 2 1 4 6 6 7 8 6 7 8 9 10 11 11 12 12 12 12 13 12 11 10 11 10 10 9
6 5 2 2 1 3 2 4 3 2 3 4 4 5 5 5 6 3 1 2 5 5 6 6 7 8 7 8 8 9 10 11 11 12 13 12 12 11 12 11 11 10 9 8
5 4 3 5 5 7 3 2 2 3 3 5 1 6 6 8 8 8 5 4 4 5 5 5 8 9 9 8 10 11 12 13 14 12 11 11 11 11 11 11 10 9 9 9
4 4 4 3 3 1 1 4 4 4 5 1 3 6 2 4 6 5 5 4 3 3 4 5 8 9 10 9 9 11 11 13 11 10 11 11 10 10 10 9 9 9 10 10
6 3 4 2 0 1 4 5 3 4 3 7 6 5 3 3 4 5 5 5 4 3 4 4 8 10 11 12 12 9 8 10 9 11 11 11 10 10 10 9 9 10 11 12
5 3 4 6 3 3 6 7 8 5 4 5 6 4 4 7 7 5 5 5 4 5 4 4 5 10 13 13 14 15 12 9 9 11 12 12 11 10 11 11 11 12 11 12
3 3 3 1 3 2 3 4 13 13 5 8 4 9 6 9 10 7 4 3 3 5 5 4 5 7 12 15 16 16 14 10 9 12 14 13 10 11 13 14 14 13 13 15
3 3 2 2 3 4 3 5 6 12 9 7 3 7 8 2 1 1 3 3 4 4 6 5 4 9 14 16 16 16 16 13 10 11 14 13 12 13 15 15 15 16 17 16
4 5 3 3 1 1 6 11 16 6 5 10 11 9 4 1 3 3 3 4 5 3 5 6 5 7 14 14 16 18 17 14 11 10 11 13 14 16 17 16 16 18 19 17
5 4 2 2 1 1 6 0 1 12 5 11 2 4 5 4 2 3 4 4 3 3 5 5 6 11 12 14 15 17 15 12 11 10 11 13 15 18 19 19 20 21 21 21
2 4 3 4 3 6 2 4 6 7 7 12 17 4 3 0 3 4 4 2 4 4 5 5 8 12 12 13 14 15 13 13 10 11 12 12 13 16 18 21 22 23 24 24
4 5 3 2 4 6 6 3 5 3 5 3 5 7 6 6 1 4 4 2 3 2 2 5 10 10 11 13 14 13 14 12 14 16 17 17 17 17 20 21 22 23 23 25
4 3 4 3 1 7 5 4 5 5 5 3 4 5 6 5 4 4 1 2 2 1 5 7 9 9 10 12 14 13 14 12 17 18 18 18 17 17 18 20 21 22 23 24
4 6 3 3 2 8 5 4 6 5 2 3 3 3 4 3 1 2 1 0 1 3 6 8 9 10 11 12 13 11 12 18 20 20 19 18 17 17 16 16 18 19 20 22
2 5 4 7 5 3 4 4 2 3 4 4 4 4 5 5 4 4 2 2 2 4 5 9 10 10 11 13 12 12 16 19 21 21 20 18 17 17 15 15 16 16 15 16
3 3 2 2 2 4 4 2 2 5 3 4 4 5 5 5 5 4 3 2 1 3 5 8 10 10 11 14 14 13 16 19 20 20 19 19 19 20 18 17 15 14 14 15
2 5 4 3 4 2 5 7 7 5 5 6 5 4 5 6 4 4 2 1 0 2 5 7 8 9 11 14 15 15 17 19 19 19 18 19 19 19 20 19 17 16 16 15
5 6 4 5 5 3 2 6 9 9 8 8 6 5 4 4 5 3 3 1 1 3 5 8 9 10 12 13 15 15 17 18 18 19 18 18 18 18 17 18 20 15 12 14
Wind_Direction
206 167 204 206 199 135 139 181 201 221 51 287 247 268 280 321 17 3 8 20 36 35 3 52 70 104 130 143 157 166 176 188 208 232 251 261 269 278 292 304 300 298 301 303
128 233 221 167 192 199 180 188 234 274 111 307 323 282 268 275 304 309 305 353 17 62 37 45 70 84 107 133 152 172 193 206 228 251 266 274 286 292 299 293 275 281 291 297
186 231 172 157 165 173 204 192 184 199 333 114 334 287 211 232 181 233 226 252 306 309 322 5 49 89 144 174 192 208 220 230 245 260 270 277 284 283 272 255 268 280 291 301
242 208 156 157 190 148 193 175 128 119 88 235 8 280 268 204 227 233 243 281 293 337 347 288 239 225 217 218 224 227 226 235 255 267 270 273 273 269 261 271 280 286 287 285
217 177 164 159 202 151 211 115 117 109 95 48 276 77 269 128 243 236 216 214 217 291 287 282 268 251 241 237 229 224 236 251 260 266 272 275 270 266 269 274 277 279 272 266
19 29 136 155 69 98 136 84 61 57 87 337 226 152 256 193 203 186 176 196 268 317 305 290 280 256 243 240 239 244 249 253 253 260 266 267 268 266 267 268 272 270 260 259
148 120 39 128 92 30 85 119 17 346 15 221 250 154 255 230 208 181 181 269 339 329 332 315 303 269 257 251 253 249 247 248 247 256 260 262 263 262 261 264 265 266 264 273
167 210 176 174 189 177 185 163 168 204 195 246 47 231 251 213 216 253 241 246 296 332 331 306 295 287 265 263 257 241 239 245 251 255 259 262 264 265 264 262 262 261 272 286
165 189 93 79 135 140 178 194 135 103 53 46 233 287 285 155 318 331 337 81 342 338 331 314 310 306 282 270 248 241 245 249 253 259 262 269 272 266 262 259 261 270 270 280
184 113 182 133 128 41 144 160 97 10 154 240 280 279 241 224 222 248 345 308 310 318 337 330 328 318 308 284 262 250 250 255 260 263 269 274 270 264 259 260 257 263 271 273
143 105 115 140 206 168 140 184 87 117 134 166 229 258 214 205 179 176 216 237 251 283 298 314 334 337 315 294 267 259 261 267 267 263 263 264 268 269 254 253 265 273 274 270
174 112 135 190 245 194 98 188 164 140 210 170 154 272 255 203 173 163 226 250 233 239 287 310 324 345 358 342 295 273 266 267 267 263 262 261 264 263 254 256 273 278 274 267
176 143 116 61 26 172 213 191 132 103 87 194 148 257 352 327 292 247 235 262 263 256 321 328 336 340 345 354 351 332 300 278 267 259 257 260 265 269 278 281 275 273 269 264
105 146 160 181 168 125 192 179 171 142 160 165 227 271 281 249 241 253 270 255 259 252 285 299 320 332 342 348 352 354 343 301 276 265 264 270 276 281 285 283 269 270 260 257
95 134 99 75 85 86 172 176 185 204 182 189 239 202 229 220 223 219 243 260 286 274 300 314 317 321 337 344 348 350 353 331 292 270 268 273 282 277 275 273 268 266 259 251
22 112 94 40 33 45 251 202 222 232 232 269 124 274 216 233 30 176 237 323 295 266 283 290 298 330 338 339 342 339 343 344 308 290 278 282 279 276 273 272 267 262 255 254
126 135 117 242 10 359 300 215 206 199 200 207 219 229 174 219 209 207 232 216 220 273 269 282 284 315 332 336 334 330 333 334 329 304 290 285 283 278 275 273 268 263 261 263
129 102 67 145 22 313 244 267 261 217 227 222 288 230 186 189 186 162 197 179 238 271 274 287 313 336 341 338 337 333 336 335 333 326 313 304 294 286 283 278 270 268 267 267
105 120 95 142 196 290 282 237 162 168 274 207 218 188 201 59 94 236 181 203 216 220 267 298 339 341 341 349 346 341 343 345 346 345 333 322 311 299 290 281 276 274 273 271
99 87 107 123 149 217 242 257 185 148 297 236 173 168 152 150 141 253 168 225 269 282 353 353 356 356 357 353 352 349 348 348 344 336 327 322 314 299 291 287 284 282 279 276
130 119 161 153 207 287 242 216 162 91 242 204 179 166 157 176 186 182 258 257 250 352 7 2 2 360 359 351 353 350 343 343 334 329 326 323 319 312 301 294 288 285 282 278
152 146 168 115 128 269 162 109 169 209 147 161 176 171 142 140 138 177 194 249 14 11 3 0 354 356 359 357 353 341 335 333 333 332 331 330 328 324 317 309 300 293 286 280
222 177 175 185 211 224 218 190 229 168 151 203 158 171 155 147 172 145 131 92 38 14 352 352 354 348 358 355 354 337 333 335 335 335 336 339 339 339 334 324 318 310 304 290
255 171 151 69 273 232 224 215 194 186 157 142 128 146 159 146 146 135 144 112 30 2 353 350 351 350 347 351 351 343 338 337 337 338 343 346 345 344 346 340 333 323 313 303
200 147 178 270 277 341 246 213 176 166 131 124 112 133 145 138 147 147 156 152 351 339 347 350 346 338 336 343 348 348 345 344 342 342 344 345 345 345 343 343 335 325 320 310
185 188 169 215 208 185 219 198 154 155 167 159 141 133 113 133 151 164 173 172 339 327 331 336 336 333 335 340 344 347 349 348 346 341 341 343 341 340 336 337 336 345 328 321
Height
789 795 790 777 786 780 785 791 787 786 791 789 792 795 789 788 790 789 789 789 790 789 788 785 783 783 783 787 790 793 796 798 800 801 801 801 802 802 801 800 800 800 799 799
792 785 772 776 784 785 784 787 790 789 793 793 795 791 788 786 788 790 789 789 789 789 788 787 787 789 792 791 793 795 797 798 799 800 800 800 800 800 800 799 798 798 798 797
779 766 767 775 782 788 788 790 789 787 796 799 803 797 787 785 789 790 790 790 790 789 789 789 789 790 792 794 795 796 797 797 798 798 799 798 798 798 798 798 797 797 797 796
774 766 769 772 776 780 787 785 790 797 811 806 807 812 787 785 788 788 788 791 790 789 789 789 790 790 792 793 794 795 795 796 796 797 797 796 796 796 796 796 796 796 795 793
767 770 770 775 771 774 784 789 794 803 821 834 812 841 788 788 788 786 788 791 790 789 789 789 789 789 790 792 793 794 794 794 794 795 795 795 795 795 794 794 794 793 792 791
767 769 769 770 779 778 789 795 801 814 827 846 818 814 782 793 787 778 784 789 789 789 789 788 787 788 788 790 791 792 792 792 792 792 793 793 793 792 791 792 792 790 790 788
770 771 774 773 782 785 790 791 823 835 855 816 814 817 780 781 783 782 785 785 789 789 789 788 788 787 787 787 788 789 789 789 789 790 790 790 790 789 789 789 789 788 787 786
765 778 776 773 775 777 785 786 790 803 833 816 806 818 774 787 796 801 797 795 789 788 790 790 787 785 785 785 785 786 786 786 787 788 788 788 787 787 786 787 786 785 785 784
763 767 779 781 780 778 787 790 792 824 855 833 817 792 774 781 790 795 794 783 786 788 789 789 785 783 783 782 783 784 783 783 784 785 785 784 784 784 783 784 783 783 782 782
753 776 775 782 779 781 780 785 792 820 825 828 818 817 782 790 793 791 790 786 787 789 788 788 784 782 781 781 781 781 780 781 781 781 781 780 781 781 781 781 781 780 779 779
752 761 778 779 783 780 787 791 790 786 812 830 844 798 788 780 787 787 791 785 790 791 790 788 785 782 780 780 780 779 778 778 778 777 777 777 777 777 778 778 778 777 776 776
742 763 773 783 792 787 787 789 782 785 809 822 837 794 797 794 789 791 787 783 787 788 788 787 785 782 780 779 778 776 775 773 774 774 774 774 774 774 774 774 773 773 773 774
741 752 773 775 780 783 783 784 787 797 813 807 800 783 800 805 799 790 789 787 785 787 787 786 785 781 779 777 775 773 771 770 770 770 770 770 770 770 770 770 770 771 771 772
736 754 757 748 753 770 775 770 778 782 795 806 798 796 797 786 793 788 789 786 789 788 789 787 785 781 778 776 773 770 767 767 766 767 766 766 766 766 766 767 768 768 769 769
742 753 770 778 780 783 787 785 771 770 788 764 783 789 783 779 778 785 788 791 790 789 789 787 784 780 776 774 771 769 765 764 763 763 763 763 764 763 763 764 764 764 765 765
751 763 770 774 788 803 773 773 787 769 767 794 830 791 781 790 797 789 790 794 794 792 788 785 781 778 776 774 770 768 765 762 760 760 759 760 760 760 760 760 760 761 761 760
754 768 772 781 793 788 781 772 766 771 774 755 767 757 790 784 792 792 789 781 780 779 785 781 778 775 775 773 770 767 764 762 759 757 756 756 756 755 756 757 756 756 756 756
762 767 772 799 792 794 759 798 780 757 773 769 785 788 776 776 783 781 779 784 782 782 781 778 775 773 772 771 769 766 762 760 757 755 753 753 753 752 752 752 751 750 750 750
756 762 790 791 805 771 748 780 770 762 751 756 751 782 787 789 785 777 776 781 780 778 777 775 774 772 771 768 766 764 761 759 756 754 753 752 750 748 747 746 745 744 744 743
752 757 766 812 801 786 762 766 768 775 762 773 771 767 775 771 781 780 774 778 777 775 774 774 773 771 769 766 763 762 760 758 756 754 751 749 747 745 742 740 739 738 737 736
752 756 769 794 812 776 762 757 758 762 755 775 777 773 766 767 770 777 778 777 775 774 773 772 771 769 767 765 762 760 760 758 756 753 749 746 743 740 737 734 733 732 731 730
749 758 773 785 791 773 755 754 754 754 763 765 770 771 770 775 777 777 777 775 774 773 772 770 769 767 766 764 762 760 759 756 753 749 746 742 739 736 733 731 728 727 726 725
755 746 751 753 749 749 755 751 755 758 756 764 760 765 765 769 773 772 773 774 774 773 772 770 768 766 764 764 762 759 757 754 751 747 743 739 736 733 730 727 725 723 721 720
750 746 748 748 742 747 750 751 752 754 750 751 753 759 762 765 768 771 772 773 773 772 772 770 768 765 763 762 760 758 755 753 749 745 741 737 734 730 727 725 722 720 718 716
740 742 740 745 737 744 740 741 742 748 749 752 756 759 762 764 768 769 770 771 771 771 770 768 767 764 762 761 758 756 754 751 748 744 740 737 733 729 726 723 720 717 715 713
736 734 735 733 727 727 727 732 738 744 748 752 755 760 762 763 766 768 769 769 769 769 768 766 765 763 760 758 756 754 752 750 746 743 739 736 732 729 726 722 717 715 713 710